This demonstration page uses our WeatherBlox Daily Observations layout. Learn more.

Left ArrowRight Arrow

39.92423, -83.80882

Hourly Observations for June 11, 2018

Temp ( °F °C ) Dew Point ( °F °C ) Humidity (%) Winds ( mph kmh ) Pressure ( in mb ) Visibility ( mi km ) Precip ( " mm )
12:56 am 00:56 Clear 69 20.6 66 18.9 90 90 SSW 5 7 29.86 1011 10 16 N/A
1:56 am 01:56 Mostly Clear with Light Rain 69 20.6 66 18.9 90 90 SW 6 9 29.85 1011 10 16 N/A
2:56 am 02:56 Clear 68 20 66 18.9 93 93 N N/A 29.85 1011 10 16 N/A
3:56 am 03:56 Clear 67 19.4 66 18.9 97 97 SW 3 6 29.85 1011 8 13 N/A
4:56 am 04:56 Mostly Clear with Mist and Fog 67 19.4 66 18.9 97 97 N N/A 29.85 1011 5 8 N/A
5:56 am 05:56 Mostly Clear with Mist and Fog 67 19.4 67 19.4 100 100 N N/A 29.85 1011 6 10 N/A
6:56 am 06:56 Partly Cloudy with Mist and Fog 67 19.4 66 18.9 97 97 SSW 3 6 29.88 1012 6 10 N/A
7:18 am 07:18 Partly Cloudy with Mist and Fog 66 19 66 19 100 100 SW 3 6 29.88 1012 3 4 N/A
7:39 am 07:39 Partly Cloudy with Mist and Fog 66 19 66 19 100 100 WSW 3 6 29.88 1012 3 5 N/A
7:56 am 07:56 Partly Cloudy with Mist and Fog 68 20 68 20 100 100 WSW 3 6 29.92 1013 4 6 N/A
8:56 am 08:56 Sunny 68 20 67 19.4 96 96 WSW 6 9 29.93 1014 10 16 N/A
9:56 am 09:56 Sunny 69 20.6 67 19.4 93 93 W 7 11 29.94 1014 10 16 N/A
10:56 am 10:56 Partly Cloudy with Light Rain 69 20.6 68 20 96 96 WSW 3 6 29.96 1014 8 13 0.02 0.51
1:56 pm 13:56 Partly Cloudy with Rain 69 20.6 68 20 96 96 WSW 7 11 29.95 1014 6 10 0.06 1.52
2:56 pm 14:56 Partly Cloudy with Light Rain 69 20.6 68 20 96 96 SSW 7 11 29.94 1014 10 16 0.14 3.56
3:56 pm 15:56 Sunny 72 22.2 67 19.4 84 84 S 3 6 29.93 1014 10 16 N/A
4:56 pm 16:56 Sunny 72 22.2 67 19.4 84 84 SSE 5 7 29.93 1014 10 16 N/A
5:56 pm 17:56 Sunny 73 22.8 66 18.9 79 79 N N/A 29.94 1014 10 16 N/A
6:56 pm 18:56 Sunny 71 21.7 67 19.4 87 87 ENE 9 15 29.93 1014 10 16 N/A
7:56 pm 19:56 Sunny 71 21.7 66 18.9 84 84 NE 7 11 29.94 1014 10 16 N/A
8:56 pm 20:56 Sunny 69 20.6 66 18.9 90 90 SE 7 11 29.97 1015 10 16 N/A
9:56 pm 21:56 Clear 68 20 66 18.9 93 93 E 7 11 29.99 1016 10 16 N/A
10:56 pm 22:56 Clear 66 18.9 65 18.3 96 96 E 10 17 29.99 1016 10 16 N/A
11:56 pm 23:56 Clear 66 18.9 65 18.3 96 96 E 12 19 29.99 1016 9 14 N/A

Powered by AerisWeather